This is the latest recevied weather packets stored in our database for station/object EA5JJP-10. If no packets are shown the sender has not sent any weather packets the latest 10 day(s).
| Time | Temp. | Humidity | Pressure | Rain* | Wind** | Luminosity | Snow |
|---|---|---|---|---|---|---|---|
| 1777269483 | 10.56° C | 65% | 913.7 hPa | - | - | - | - |
| 1777268584 | 9.44° C | 69% | 913.7 hPa | - | - | - | - |
| 1777267686 | 8.89° C | 69% | 913.5 hPa | - | - | - | - |
| 1777266787 | 9.44° C | 66% | 913.3 hPa | - | - | - | - |
| 1777265889 | 9.44° C | 67% | 913.4 hPa | - | - | - | - |
| 1777264991 | 8.89° C | 68% | 913.4 hPa | - | - | - | - |
| 1777264092 | 8.89° C | 75% | 913.3 hPa | - | - | - | - |
| 1777263194 | 8.89° C | 74% | 913.3 hPa | - | - | - | - |
| 1777262295 | 8.89° C | 76% | 913.3 hPa | - | - | - | - |
| 1777261397 | 8.89° C | 76% | 913.4 hPa | - | - | - | - |
| 1777260499 | 8.89° C | 75% | 913.3 hPa | - | - | - | - |
| 1777259602 | 9.44° C | 74% | 913.4 hPa | - | - | - | - |
| 1777258704 | 9.44° C | 72% | 913.6 hPa | - | - | - | - |
| 1777257805 | 9.44° C | 71% | 913.6 hPa | - | - | - | - |
| 1777256907 | 9.44° C | 69% | 913.5 hPa | - | - | - | - |
| 1777256009 | 9.44° C | 69% | 913.7 hPa | - | - | - | - |
| 1777255110 | 9.44° C | 69% | 913.8 hPa | - | - | - | - |
| 1777254212 | 9.44° C | 75% | 913.8 hPa | - | - | - | - |
| 1777253314 | 9.44° C | 77% | 913.9 hPa | - | - | - | - |
| 1777252416 | 9.44° C | 77% | 914.2 hPa | - | - | - | - |
| 1777251517 | 8.89° C | 76% | 914.3 hPa | - | - | - | - |
| 1777250619 | 8.89° C | 71% | 914.4 hPa | - | - | - | - |
| 1777249721 | 8.89° C | 74% | 914.5 hPa | - | - | - | - |
| 1777248823 | 9.44° C | 76% | 914.8 hPa | - | - | - | - |
| 1777247924 | 9.44° C | 74% | 914.7 hPa | - | - | - | - |
* Rain since midnight (hover to see other rain measurements)
** Current wind speed in m/s (hover to see current wind gust speed)